| time (UTC) | temp F | wind direction | speed MPH | gust MPH | rain 1hr in | rain 24hr in | rain mn in | humidity % | barometer mb |
| 20260504213806 | 76 | 254 | 4.0 | 18.0 | 0.00 | 0.00 | 0.00 | 48 | 1003.0 |
| 20260504212545 | 77 | 248 | 4.0 | 18.0 | 0.00 | 0.01 | 0.00 | 44 | 1002.7 |
| 20260504211407 | 78 | 221 | 3.0 | 14.0 | 0.00 | 0.01 | 0.00 | 44 | 1002.8 |
| 20260504210232 | 77 | 307 | 4.0 | 16.0 | 0.00 | 0.01 | 0.00 | 44 | 1002.6 |
| 20260504205020 | 78 | 248 | 4.0 | 15.0 | 0.00 | 0.01 | 0.00 | 45 | 1002.9 |
| 20260504203756 | 77 | 355 | 3.0 | 16.0 | 0.00 | 0.02 | 0.00 | 46 | 1002.9 |
| 20260504202517 | 78 | 313 | 5.0 | 20.0 | 0.00 | 0.02 | 0.00 | 47 | 1002.9 |
| 20260504201311 | 78 | 344 | 4.0 | 15.0 | 0.00 | 0.02 | 0.00 | 50 | 1003.1 |
| 20260504200111 | 78 | 156 | 3.0 | 15.0 | 0.00 | 0.02 | 0.00 | 47 | 1003.0 |
| 20260504194928 | 78 | 16 | 5.0 | 18.0 | 0.00 | 0.02 | 0.00 | 44 | 1003.1 |
| 20260504193653 | 78 | 336 | 4.0 | 18.0 | 0.00 | 0.02 | 0.00 | 48 | 1003.2 |
| 20260504192414 | 78 | 246 | 4.0 | 18.0 | 0.00 | 0.02 | 0.00 | 46 | 1003.5 |
| 20260504191219 | 77 | 294 | 4.0 | 18.0 | 0.00 | 0.02 | 0.00 | 50 | 1003.6 |
| 20260504190008 | 78 | 343 | 5.0 | 26.0 | 0.00 | 0.02 | 0.00 | 48 | 1003.7 |
| 20260504184749 | 78 | 162 | 4.0 | 26.0 | 0.00 | 0.02 | 0.00 | 45 | 1003.7 |
| 20260504183608 | 78 | 229 | 3.0 | 14.0 | 0.00 | 0.02 | 0.00 | 49 | 1003.6 |
| 20260504182344 | 77 | 211 | 4.0 | 15.0 | 0.00 | 0.02 | 0.00 | 51 | 1004.0 |
| 20260504181156 | 77 | 142 | 3.0 | 11.0 | 0.00 | 0.02 | 0.00 | 54 | 1004.0 |
| 20260504180004 | 76 | 269 | 4.0 | 15.0 | 0.00 | 0.02 | 0.00 | 51 | 1004.1 |
| 20260504174740 | 75 | 51 | 4.0 | 15.0 | 0.00 | 0.02 | 0.00 | 51 | 1003.9 |
| 20260504173519 | 76 | 263 | 3.0 | 11.0 | 0.00 | 0.02 | 0.00 | 51 | 1004.0 |
| 20260504172247 | 75 | 83 | 4.0 | 12.0 | 0.00 | 0.02 | 0.00 | 55 | 1004.3 |
| 20260504171113 | 75 | 221 | 4.0 | 18.0 | 0.00 | 0.02 | 0.00 | 58 | 1004.5 |
| 20260504151052 | 67 | 112 | 1.0 | 8.0 | 0.00 | 0.02 | 0.00 | 61 | 1006.3 |
| 20260504141135 | 63 | 112 | 1.0 | 8.0 | 0.00 | 0.02 | 0.00 | 64 | 1006.8 |
| 20260504081958 | 50 | 162 | 0.0 | 8.0 | 0.00 | 0.02 | 0.00 | 77 | 1007.9 |
| 20260504080825 | 49 | 182 | 0.0 | 8.0 | 0.00 | 0.02 | 0.00 | 79 | 1008.0 |
| 20260504050748 | 46 | 130 | 0.0 | 2.0 | 0.00 | 0.02 | 0.00 | 86 | 1009.9 |
| 20260504045613 | 46 | 159 | 0.0 | 0.0 | 0.00 | 0.02 | 0.00 | 85 | 1009.9 |
| 20260504044354 | 46 | 150 | 0.0 | 0.0 | 0.00 | 0.02 | 0.00 | 84 | 1010.0 |
| 20260504043145 | 47 | 113 | 0.0 | 3.0 | 0.00 | 0.02 | 0.00 | 84 | 1010.0 |
| 20260504042007 | 47 | 136 | 0.0 | 3.0 | 0.00 | 0.02 | 0.00 | 84 | 1010.1 |
| 20260504040741 | 47 | 148 | 1.0 | 4.0 | 0.00 | 0.02 | 0.00 | 83 | 1010.3 |
| 20260504035558 | 47 | 138 | 1.0 | 4.0 | 0.00 | 0.02 | 0.02 | 83 | 1010.3 |
| 20260504034354 | 47 | 123 | 1.0 | 3.0 | 0.00 | 0.02 | 0.02 | 83 | 1010.4 |
| 20260504033201 | 47 | 130 | 0.0 | 3.0 | 0.00 | 0.02 | 0.02 | 82 | 1010.5 |
| 20260504032018 | 48 | 123 | 1.0 | 4.0 | 0.00 | 0.02 | 0.02 | 81 | 1010.7 |
| 20260504030804 | 48 | 148 | 1.0 | 7.0 | 0.00 | 0.02 | 0.02 | 81 | 1010.8 |
| 20260504025546 | 48 | 136 | 1.0 | 7.0 | 0.00 | 0.02 | 0.02 | 80 | 1010.9 |
| 20260504024404 | 49 | 152 | 1.0 | 7.0 | 0.00 | 0.02 | 0.02 | 80 | 1011.1 |
| 20260504023211 | 48 | 143 | 1.0 | 4.0 | 0.00 | 0.02 | 0.02 | 80 | 1011.0 |
| 20260504022026 | 48 | 139 | 0.0 | 8.0 | 0.00 | 0.02 | 0.02 | 80 | 1011.1 |
| 20260504020836 | 50 | 126 | 3.0 | 8.0 | 0.00 | 0.02 | 0.02 | 78 | 1011.1 |
| 20260504015643 | 49 | 120 | 3.0 | 8.0 | 0.00 | 0.02 | 0.02 | 78 | 1011.2 |
| 20260504014408 | 50 | 124 | 3.0 | 8.0 | 0.00 | 0.02 | 0.02 | 76 | 1011.1 |
| 20260504013215 | 50 | 123 | 1.0 | 8.0 | 0.00 | 0.02 | 0.02 | 76 | 1011.2 |
| 20260504012035 | 51 | 199 | 3.0 | 9.0 | 0.00 | 0.02 | 0.02 | 75 | 1011.3 |
| 20260504010859 | 51 | 117 | 3.0 | 9.0 | 0.00 | 0.02 | 0.02 | 75 | 1011.1 |
| 20260504005728 | 51 | 139 | 3.0 | 11.0 | 0.00 | 0.02 | 0.02 | 75 | 1011.1 |
| 20260504004532 | 52 | 98 | 3.0 | 12.0 | 0.00 | 0.02 | 0.02 | 75 | 1011.2 |
| 20260504003336 | 52 | 116 | 3.0 | 12.0 | 0.00 | 0.02 | 0.02 | 76 | 1011.1 |
| 20260504002108 | 52 | 144 | 3.0 | 11.0 | 0.00 | 0.02 | 0.02 | 77 | 1011.4 |
| 20260504000915 | 52 | 119 | 3.0 | 9.0 | 0.00 | 0.02 | 0.02 | 76 | 1011.6 |
| 20260503235733 | 52 | 155 | 3.0 | 9.0 | 0.00 | 0.02 | 0.02 | 76 | 1011.6 |
| 20260503234501 | 52 | 119 | 4.0 | 9.0 | 0.00 | 0.02 | 0.02 | 76 | 1011.8 |
| 20260503233229 | 52 | 135 | 3.0 | 11.0 | 0.00 | 0.02 | 0.02 | 76 | 1012.0 |
| 20260503232008 | 52 | 109 | 3.0 | 11.0 | 0.00 | 0.02 | 0.02 | 76 | 1012.0 |
| 20260503230833 | 52 | 162 | 3.0 | 8.0 | 0.00 | 0.02 | 0.02 | 77 | 1012.1 |
| 20260503225602 | 52 | 134 | 3.0 | 8.0 | 0.00 | 0.02 | 0.02 | 79 | 1012.3 |
| 20260503224410 | 52 | 118 | 3.0 | 11.0 | 0.00 | 0.02 | 0.02 | 79 | 1012.4 |
| 20260503223206 | 52 | 126 | 4.0 | 9.0 | 0.00 | 0.02 | 0.02 | 80 | 1012.4 |
| 20260503222001 | 50 | 117 | 3.0 | 7.0 | 0.00 | 0.02 | 0.02 | 83 | 1012.5 |
| 20260503220727 | 50 | 155 | 3.0 | 9.0 | 0.00 | 0.02 | 0.02 | 83 | 1012.6 |
| 20260503215544 | 49 | 111 | 3.0 | 11.0 | 0.00 | 0.02 | 0.02 | 83 | 1012.7 |